EW3281 Weather Reports


Display with metric or nautical units.
time (UTC)temp
F
wind
direction
speed
MPH
gust
MPH
rain 1hr
in
rain 24hr
in
rain mn
in
humidity
%
barometer
mb
20260503013026 49 51 0.0 0.0 0.00 0.01 0.01 91 1008.9
20260503012519 49 51 0.0 0.0 0.00 0.01 0.01 91 1008.9
20260503012020 49 51 0.0 0.0 0.00 0.01 0.01 91 1009.0
20260503011516 49 51 0.0 0.0 0.00 0.01 0.01 91 1008.9
20260503011016 49 51 0.0 0.0 0.00 0.01 0.01 91 1008.8
20260503010516 49 51 0.0 0.0 0.00 0.01 0.01 91 1008.8
20260503010015 49 51 0.0 0.0 0.00 0.01 0.01 91 1008.8
20260503005617 49 51 0.0 0.0 0.00 0.01 0.01 91 1008.7
20260503005031 49 51 0.0 0.0 0.00 0.01 0.01 91 1008.7
20260503004527 49 51 0.0 0.0 0.00 0.01 0.01 91 1008.7
20260503004027 49 51 0.0 0.0 0.00 0.01 0.01 91 1008.6
20260503003527 49 51 0.0 0.0 0.00 0.01 0.01 91 1008.6
20260503003027 49 51 0.0 0.0 0.00 0.01 0.01 91 1008.6
20260503002531 49 51 0.0 0.0 0.00 0.01 0.01 91 1008.6
20260503002028 49 51 0.0 0.0 0.00 0.01 0.01 91 1008.6
20260503001527 49 51 0.0 0.0 0.00 0.01 0.01 91 1008.6
20260503001026 49 51 0.0 0.0 0.00 0.01 0.01 90 1008.6
20260503000528 49 51 0.0 0.0 0.00 0.01 0.01 90 1008.5
20260503000028 49 51 0.0 0.0 0.00 0.01 0.01 90 1008.5
20260502235625 49 51 0.0 0.0 0.00 0.01 0.01 90 1008.7
20260502235004 49 51 0.0 0.0 0.00 0.01 0.01 90 1008.7
20260502234504 49 51 0.0 0.0 0.00 0.01 0.01 90 1008.6
20260502234006 49 51 0.0 0.0 0.00 0.01 0.01 90 1008.6
20260502233506 49 51 0.0 0.0 0.00 0.01 0.01 90 1008.7
20260502233003 49 51 0.0 0.0 0.00 0.01 0.01 90 1008.7
20260502232503 50 51 0.0 0.0 0.00 0.01 0.01 90 1008.7
20260502232003 50 51 0.0 0.0 0.00 0.01 0.01 90 1008.7
20260502231505 50 51 0.0 0.0 0.00 0.01 0.01 90 1008.7
20260502231002 50 51 0.0 0.0 0.00 0.01 0.01 90 1008.6
20260502230502 50 51 0.0 0.0 0.00 0.01 0.01 90 1008.7
20260502230000 50 48 0.0 0.0 0.00 0.01 0.01 89 1008.7
20260502225600 50 69 0.0 0.0 0.00 0.01 0.01 89 1008.8
20260502225048 50 69 0.0 0.0 0.00 0.01 0.01 89 1008.8
20260502224555 50 101 0.0 0.0 0.00 0.01 0.01 89 1008.8
20260502224046 50 109 0.0 0.0 0.00 0.01 0.01 89 1008.7
20260502223547 50 76 0.0 0.0 0.00 0.01 0.01 89 1008.7
20260502223045 50 63 0.0 0.0 0.00 0.01 0.01 89 1008.7
20260502222544 50 96 0.0 1.0 0.00 0.01 0.01 89 1008.8
20260502222045 50 96 0.0 1.0 0.00 0.01 0.01 88 1008.6
20260502221551 50 97 0.0 0.0 0.00 0.01 0.01 88 1008.7
20260502221044 50 97 0.0 0.0 0.00 0.01 0.01 88 1008.6
20260502220545 50 97 0.0 0.0 0.00 0.01 0.01 87 1008.6
20260502220145 50 67 0.0 0.0 0.00 0.01 0.01 87 1008.7
20260502215544 50 229 0.0 0.0 0.00 0.01 0.01 87 1008.7
20260502215056 50 229 0.0 0.0 0.00 0.01 0.01 87 1008.7
20260502214553 50 216 0.0 0.0 0.00 0.01 0.01 87 1008.5
20260502214053 50 226 0.0 0.0 0.00 0.01 0.01 87 1008.6
20260502213553 50 268 0.0 0.0 0.00 0.01 0.01 87 1008.5
20260502213052 50 88 0.0 0.0 0.00 0.01 0.01 87 1008.5
20260502212552 50 7 0.0 0.0 0.00 0.01 0.01 87 1008.4
20260502212053 50 74 0.0 0.0 0.00 0.01 0.01 88 1008.4
20260502211552 50 59 0.0 0.0 0.00 0.01 0.01 88 1008.3
20260502211053 50 96 0.0 0.0 0.00 0.01 0.01 88 1008.5
20260502210549 50 80 0.0 0.0 0.00 0.01 0.01 88 1008.5
20260502210051 50 202 0.0 0.0 0.00 0.01 0.01 88 1008.6
20260502205550 50 18 0.0 0.0 0.00 0.01 0.01 88 1008.7
20260502205041 50 18 0.0 0.0 0.00 0.01 0.01 88 1008.7
20260502204545 50 194 0.0 0.0 0.00 0.01 0.01 88 1008.7
20260502204041 50 39 0.0 0.0 0.00 0.01 0.01 88 1008.7
20260502203541 50 29 0.0 0.0 0.00 0.01 0.01 88 1008.7
20260502203046 50 202 0.0 0.0 0.00 0.01 0.01 88 1008.7
20260502202540 50 224 0.0 0.0 0.00 0.01 0.01 88 1008.8
20260502202039 50 139 0.0 0.0 0.01 0.01 0.01 88 1008.9
20260502201539 50 101 0.0 0.0 0.01 0.01 0.01 88 1008.9
20260502201038 50 50 0.0 0.0 0.01 0.01 0.01 88 1008.9
20260502200538 51 225 0.0 0.0 0.01 0.01 0.01 88 1009.0
20260502200038 51 145 0.0 0.0 0.01 0.01 0.01 87 1009.0
20260502195538 51 113 0.0 0.0 0.01 0.01 0.01 88 1009.0
20260502195034 51 203 0.0 0.0 0.01 0.01 0.01 88 1009.1
20260502194537 51 71 0.0 0.0 0.01 0.01 0.01 88 1009.2
20260502194033 51 225 0.0 0.0 0.01 0.01 0.01 88 1009.3
20260502193532 51 131 0.0 0.0 0.01 0.01 0.01 88 1009.3
20260502193032 51 223 0.0 0.0 0.01 0.01 0.01 88 1009.2
20260502192533 51 196 0.0 0.0 0.01 0.01 0.01 88 1009.3
20260502192030 51 32 0.0 0.0 0.00 0.00 0.00 88 1009.4
20260502191531 51 60 0.0 0.0 0.00 0.00 0.00 87 1009.5
20260502191032 51 215 0.0 0.0 0.00 0.00 0.00 87 1009.6
20260502190533 51 211 0.0 0.0 0.00 0.00 0.00 86 1009.6
20260502190030 51 337 0.0 0.0 0.00 0.00 0.00 85 1009.6
20260502185527 52 180 0.0 0.0 0.00 0.00 0.00 83 1009.8
20260502185027 52 165 0.0 0.0 0.00 0.00 0.00 83 1009.7
20260502184527 52 153 0.0 0.0 0.00 0.00 0.00 83 1009.8
20260502184026 52 174 0.0 0.0 0.00 0.00 0.00 81 1009.8
20260502183526 52 352 0.0 0.0 0.00 0.00 0.00 79 1009.9
20260502183026 52 53 0.0 3.0 0.00 0.00 0.00 78 1009.8
20260502182526 53 89 0.0 1.0 0.00 0.00 0.00 79 1009.7
20260502182025 53 85 0.0 1.0 0.00 0.00 0.00 81 1009.8
20260502181524 52 31 0.0 1.0 0.00 0.00 0.00 81 1009.8
20260502181024 53 114 0.0 0.0 0.00 0.00 0.00 81 1009.9
20260502180524 53 85 0.0 0.0 0.00 0.00 0.00 80 1009.9
20260502163030 53 44 0.0 0.0 0.00 0.00 0.00 79 1010.1
20260502162517 53 123 0.0 0.0 0.00 0.00 0.00 79 1010.1
20260502162016 53 76 0.0 0.0 0.00 0.00 0.00 79 1010.0
20260502161518 53 32 0.0 0.0 0.00 0.00 0.00 77 1010.0
20260502160519 54 252 0.0 1.0 0.00 0.00 0.00 78 1010.2
20260502152011 55 101 0.0 0.0 0.00 0.00 0.00 74 1010.4
20260502151510 56 108 0.0 0.0 0.00 0.00 0.00 74 1010.5
20260502150509 56 105 0.0 0.0 0.00 0.00 0.00 77 1010.3
20260502130512 52 223 0.0 1.0 0.00 0.00 0.00 80 1011.2
20260502123514 51 194 0.0 0.0 0.00 0.00 0.00 82 1011.2
20260502123012 51 222 0.0 0.0 0.00 0.00 0.00 82 1011.2
20260502122510 51 157 0.0 0.0 0.00 0.00 0.00 81 1011.1
20260502122012 51 200 0.0 1.0 0.00 0.00 0.00 81 1010.9
20260502121509 51 53 0.0 0.0 0.00 0.00 0.00 81 1010.8
20260502120558 51 131 0.0 0.0 0.00 0.00 0.00 82 1010.9
20260502120129 50 93 0.0 0.0 0.00 0.00 0.00 83 1010.9
20260502115559 50 266 0.0 1.0 0.00 0.00 0.00 82 1010.8
20260502115058 50 306 0.0 1.0 0.00 0.00 0.00 83 1010.8
20260502114658 50 84 0.0 0.0 0.00 0.00 0.00 83 1010.8
20260502114059 50 30 0.0 0.0 0.00 0.00 0.00 83 1010.7
20260502113557 50 183 0.0 0.0 0.00 0.00 0.00 83 1010.7
20260502113057 50 4 0.0 0.0 0.00 0.00 0.00 83 1010.6
20260502112556 50 205 0.0 0.0 0.00 0.00 0.00 83 1010.4
20260502112056 49 169 0.0 0.0 0.00 0.00 0.00 83 1010.4
20260502111556 49 349 0.0 0.0 0.00 0.00 0.00 83 1010.4
20260502110558 49 208 0.0 0.0 0.00 0.00 0.00 83 1010.4
20260502110055 49 190 0.0 0.0 0.00 0.00 0.00 83 1010.4
20260502105555 49 307 0.0 0.0 0.00 0.00 0.00 82 1010.5
20260502105054 49 357 0.0 0.0 0.00 0.00 0.00 82 1010.6
20260502104554 0 0.0 0.0 0.00 0.00 0.00 1010.5
20260502104051 0 0.0 0.0 0.00 0.00 0.00 1010.4
20260502103551 0 0.0 0.0 0.00 0.00 0.00 1010.5
20260502103050 0 0.0 0.0 0.00 0.00 0.00 1010.3
20260502102551 0 0.0 0.0 0.00 0.00 0.00 1010.0
20260502102045 0 0.0 0.0 0.00 0.00 0.00 1010.1
20260502101554 0 0.0 0.0 0.00 0.00 0.00 1010.2
20260502100545 0 0.0 0.0 0.00 0.00 0.00 1010.1
20260502090546 47 247 0.0 0.0 0.00 0.00 0.00 80 1010.1
20260502071530 48 241 0.0 0.0 0.00 0.00 0.00 74 1009.9
20260502070527 49 241 0.0 0.0 0.00 0.00 0.00 73 1009.9
20260502070026 49 241 0.0 0.0 0.00 0.00 0.00 73 1009.8
20260502065524 49 239 0.0 0.0 0.00 0.00 0.00 73 1009.8
20260502065023 49 314 0.0 0.0 0.00 0.00 0.00 73 1009.9
20260502064530 49 241 0.0 0.0 0.00 0.00 0.00 73 1009.9
20260502064026 49 304 0.0 0.0 0.00 0.00 0.00 73 1010.0
20260502063523 50 261 0.0 0.0 0.00 0.00 0.00 72 1010.0
20260502063024 50 261 0.0 0.0 0.00 0.00 0.00 72 1010.0
20260502062524 50 261 0.0 0.0 0.00 0.00 0.00 73 1010.1
20260502062023 49 252 0.0 0.0 0.00 0.00 0.00 74 1010.1
20260502061522 49 74 0.0 0.0 0.00 0.00 0.00 77 1010.1
20260502060522 48 77 0.0 0.0 0.00 0.00 0.00 77 1010.2
20260502060022 48 6 0.0 0.0 0.00 0.00 0.00 78 1010.1
20260502055522 48 338 0.0 0.0 0.00 0.00 0.00 80 1010.1
20260502055023 47 341 0.0 0.0 0.00 0.00 0.00 81 1010.3
20260502054523 46 338 0.0 0.0 0.00 0.00 0.00 81 1010.3
20260502054021 46 338 0.0 0.0 0.00 0.00 0.00 80 1010.4
20260502053520 46 338 0.0 0.0 0.00 0.00 0.00 79 1010.3
20260502053020 47 338 0.0 0.0 0.00 0.00 0.00 79 1010.4
20260502052520 47 338 0.0 0.0 0.00 0.00 0.00 78 1010.3
20260502052019 47 338 0.0 0.0 0.00 0.00 0.00 77 1010.3
20260502051522 47 338 0.0 0.0 0.00 0.00 0.00 76 1010.2
20260502050517 48 338 0.0 0.0 0.00 0.00 0.00 74 1010.2
20260502050029 48 338 0.0 0.0 0.00 0.00 0.00 73 1010.3
20260502045514 49 338 0.0 0.0 0.00 0.00 0.00 72 1010.3
20260502045013 49 338 0.0 0.0 0.00 0.00 0.00 71 1010.4
20260502044512 50 338 0.0 0.0 0.00 0.00 0.00 71 1010.3
20260502044011 50 338 0.0 0.0 0.00 0.00 0.00 70 1010.4
20260502043510 50 267 0.0 0.0 0.00 0.00 0.00 70 1010.4
20260502043010 50 42 0.0 0.0 0.00 0.00 0.00 69 1010.4
20260502042509 50 42 0.0 0.0 0.00 0.00 0.00 69 1010.5
20260502042012 51 244 0.0 0.0 0.00 0.00 0.00 68 1010.4
20260502041513 51 227 0.0 0.0 0.00 0.00 0.00 69 1010.4
20260502040509 51 235 0.0 0.0 0.00 0.00 0.00 69 1010.5
20260502040012 51 52 0.0 0.0 0.00 0.00 0.00 68 1010.4
20260502035508 51 229 0.0 0.0 0.00 0.00 0.00 68 1010.5
20260502035008 51 221 0.0 0.0 0.00 0.00 0.00 68 1010.4
20260502034512 51 193 0.0 0.0 0.00 0.00 0.00 68 1010.5
20260502034008 51 250 0.0 0.0 0.00 0.00 0.00 68 1010.5
20260502033509 51 219 0.0 0.0 0.00 0.00 0.00 69 1010.5
20260502033015 51 240 0.0 0.0 0.00 0.00 0.00 68 1010.4
20260502032508 51 210 0.0 0.0 0.00 0.00 0.00 69 1010.5
20260502032007 50 236 0.0 0.0 0.00 0.00 0.00 69 1010.5
20260502031507 51 215 0.0 0.0 0.00 0.00 0.00 67 1010.4
20260502030509 51 231 0.0 0.0 0.00 0.00 0.00 67 1010.4
20260502030013 51 231 0.0 0.0 0.00 0.00 0.00 66 1010.3
20260502025504 51 222 0.0 0.0 0.00 0.00 0.00 66 1010.3
20260502025003 51 240 0.0 0.0 0.00 0.00 0.00 66 1010.3
20260502024503 51 130 0.0 0.0 0.00 0.00 0.00 66 1010.2
20260502024003 51 34 0.0 0.0 0.00 0.00 0.00 66 1010.2
20260502023501 52 47 0.0 0.0 0.00 0.00 0.00 65 1010.1
20260502023100 52 47 0.0 0.0 0.00 0.00 0.00 63 1010.2
20260502022558 52 47 0.0 0.0 0.00 0.00 0.00 63 1010.2
20260502022057 52 47 0.0 0.0 0.00 0.00 0.00 61 1010.2
20260502021604 53 47 0.0 0.0 0.00 0.00 0.00 60 1010.2
20260502020557 53 48 0.0 0.0 0.00 0.00 0.00 59 1010.1
20260502020056 53 19 0.0 0.0 0.00 0.00 0.00 57 1010.1
20260502015555 53 19 0.0 0.0 0.00 0.00 0.00 56 1010.1
20260502015055 53 262 0.0 0.0 0.00 0.00 0.00 56 1010.1
20260502014553 53 257 0.0 0.0 0.00 0.00 0.00 55 1010.0
20260502014053 53 252 0.0 0.0 0.00 0.00 0.00 54 1009.9
20260502013552 53 18 0.0 0.0 0.00 0.00 0.00 52 1009.9